Location: Haskovo
(41.9227°N, 25.5707°E)
Time: 22:54:53
(UTC+03:00)

ISS - Pass Details

Date: 19 May 2025
Orbit: 415 x 416 km, 51.6° (Epoch: 16 June)

Event Time Altitude Azimuth Distance (km) Brightness Sun altitude
Rises 00:05:15 0° 307° (NW) 2,360 0.9 -26.3°
Reaches altitude 10° 00:07:24 10° 312° (NW) 1,493 -0.2 -26.4°
Enters shadow 00:08:56 24° 323° (NW) 913 -1.4 -26.5°
